Lid_Strength_Index
14 13 13 13 13 13 15 15 17 16 16 14 12 11 10 9 8 8 7 6 6 6 5 5 5 4 3 3 2 2 2 3 2 3 3 3 4 3 3 2 2 3 2 2
16 13 13 14 13 13 14 14 15 15 15 11 9 10 9 10 9 9 8 6 6 6 5 5 4 4 3 3 3 2 2 2 2 2 2 2 3 3 3 4 3 2 3 3
19 14 14 17 14 14 14 13 13 15 13 11 11 10 10 9 9 9 7 7 7 6 5 5 4 4 4 4 3 2 2 2 2 1 2 2 2 2 3 3 4 3 2 2
20 16 23 14 10 11 12 11 11 11 11 10 10 9 9 8 9 8 7 7 6 5 5 5 4 4 3 3 2 2 2 2 2 2 2 2 2 3 3 3 3 4 3 2
21 20 16 13 11 11 13 13 10 11 10 9 9 9 10 7 6 6 6 6 5 4 4 4 4 3 3 4 4 3 2 2 2 2 2 2 2 2 2 2 3 3 3 3
17 22 23 14 9 8 10 16 9 9 10 10 9 12 10 7 6 6 5 4 4 4 4 4 4 4 4 5 4 5 4 2 1 1 2 2 3 2 2 2 2 2 2 2
18 19 15 10 8 8 15 15 9 8 8 9 10 8 6 5 5 5 5 5 4 5 6 5 6 6 6 5 5 4 4 3 2 1 1 1 2 3 4 4 4 3 3 3
16 17 18 8 9 12 11 10 8 8 8 8 7 7 6 6 6 6 6 6 5 6 6 6 6 6 6 6 5 5 4 4 4 4 3 2 3 3 4 4 5 5 5 5
15 15 11 9 10 8 8 8 8 8 7 7 7 7 7 7 7 7 6 6 6 7 7 7 7 7 7 7 6 5 5 5 5 4 4 4 4 4 5 6 6 6 6 6
14 13 11 9 8 7 6 7 7 7 7 7 8 8 8 8 8 7 7 7 7 8 8 8 8 7 7 7 6 6 6 6 6 6 6 5 5 5 6 6 7 7 6 7
14 12 9 8 7 6 6 6 7 7 7 8 9 9 9 10 10 9 9 9 9 9 9 9 8 8 8 8 7 8 7 7 6 6 6 6 6 6 6 6 6 6 6 6
14 10 9 8 7 6 7 7 7 8 9 9 9 10 10 11 10 10 10 9 9 10 10 10 10 10 10 9 9 10 10 9 8 7 6 6 6 6 7 7 7 8 8 7
10 8 8 7 7 6 7 8 8 9 9 9 9 9 9 9 9 9 9 10 10 11 11 12 12 12 11 11 11 11 11 10 10 9 9 9 7 7 7 6 7 8 8 8
7 7 8 8 8 7 8 8 7 8 8 9 9 8 9 9 9 10 10 10 11 11 12 12 12 13 12 11 12 12 12 11 11 11 10 10 10 9 9 9 9 7 8 8
7 6 7 7 8 8 7 8 8 9 9 9 9 9 9 10 10 10 10 10 11 12 12 12 13 13 12 12 12 13 13 12 12 12 11 11 11 10 10 10 10 10 9 9
7 7 8 8 7 7 8 8 8 8 8 8 8 9 9 9 9 8 9 10 11 12 12 12 13 12 12 12 13 13 13 13 13 13 13 13 12 12 12 11 11 11 10 10
9 9 8 8 8 7 7 7 7 8 8 9 9 9 9 9 9 9 9 9 10 11 12 13 13 13 13 13 14 14 14 14 15 14 14 13 13 13 13 12 12 11 10 10
6 6 7 8 7 7 7 7 7 7 9 9 8 8 10 10 11 10 9 9 10 12 12 13 13 13 13 14 14 15 15 15 15 15 14 14 13 12 12 11 11 11 10 10
6 6 6 6 6 6 7 7 7 7 8 8 9 9 10 10 10 10 9 10 11 14 13 13 12 13 14 14 13 14 15 15 15 15 14 14 13 12 12 12 12 11 10 10
5 5 5 6 5 6 6 6 7 7 8 8 8 9 10 10 10 10 10 11 11 12 13 13 13 14 14 14 14 14 14 14 14 14 13 13 12 12 12 12 11 10 10 10
5 6 6 6 7 6 6 7 7 7 7 8 9 11 11 11 10 10 11 11 11 10 13 12 14 14 14 14 14 13 13 13 13 12 12 11 11 10 11 11 10 10 10 9
5 6 6 6 6 7 7 7 7 7 7 8 9 10 11 10 10 10 10 11 10 11 12 13 14 15 15 14 13 14 14 14 14 13 13 13 12 12 11 10 9 9 8 8
6 6 6 6 6 7 7 7 8 7 8 9 11 11 11 11 11 11 12 10 10 11 10 12 14 14 15 14 14 14 14 14 14 14 14 14 13 13 13 12 12 11 10 9
5 5 6 6 7 6 7 8 8 8 8 9 10 11 11 11 10 9 9 10 11 11 11 11 12 14 14 14 14 15 15 15 15 14 14 15 14 14 14 13 13 12 12 11
5 5 6 7 7 8 7 8 8 9 9 9 10 10 10 10 9 9 9 9 10 10 10 11 11 13 13 14 14 14 15 15 15 15 15 15 15 15 15 15 14 14 13 11
6 6 6 6 7 8 8 8 9 9 9 9 10 10 10 10 9 9 9 10 10 10 10 10 11 11 13 14 14 14 14 15 15 15 15 15 14 14 14 14 15 14 14 13
7 7 7 6 7 8 8 8 9 9 9 9 10 10 10 10 10 10 10 10 10 10 10 10 11 11 11 13 14 14 14 14 14 14 14 14 14 14 15 14 15 15 15 14